^^
Saratoga-Weather Station Historical Data
Daily Summary for April 07, 2021 Units:  Metric    English   Both
Daily Weekly Monthly Yearly Custom
  High: Low: Average:
Temperature: 2.6 °C -0.7 °C 0.3 °C
Dew Point: -2.1 °C -3.3 °C -2.8 °C
Humidity: 85% 70% 80%
Wind Speed: 19.5km/h 1.4km/h 7.9km/h
Wind Gust: 30.6km/h - -
Wind- - West
Pressure: 1020.3 hPa 1014.6 hPa -
Precipitation: 0.0 mm    
Historical Graphs
 
 
Tabular Data for April 07, 2021
Time Temperature Dew Point Pressure Wind Wind Speed Wind Gust Humidity Rainfall Rate (Hourly) solar
00:02 0.8 °C -3.3 °C 1014.6 hPa WNW 6.4 km/h 14.5 km/h 74% 0.0 mm 0 W/m2
00:07 0.8 °C -3.3 °C 1014.6 hPa West 9.7 km/h 12.9 km/h 74% 0.0 mm 0 W/m2
00:12 0.8 °C -3.3 °C 1014.6 hPa West 4.7 km/h 14.5 km/h 74% 0.0 mm 0 W/m2
00:17 0.8 °C -3.3 °C 1014.6 hPa WSW 6.4 km/h 12.9 km/h 74% 0.0 mm 0 W/m2
00:22 0.7 °C -3.2 °C 1014.6 hPa WSW 1.4 km/h 9.7 km/h 75% 0.0 mm 0 W/m2
00:27 0.6 °C -3.3 °C 1014.9 hPa NW 6.4 km/h 6.4 km/h 75% 0.0 mm 0 W/m2
00:32 0.5 °C -3.2 °C 1014.9 hPa SW 6.4 km/h 12.9 km/h 76% 0.0 mm 0 W/m2
00:37 0.4 °C -3.2 °C 1014.9 hPa WNW 6.4 km/h 11.3 km/h 77% 0.0 mm 0 W/m2
00:42 0.4 °C -3 °C 1014.9 hPa West 6.4 km/h 14.5 km/h 78% 0.0 mm 0 W/m2
00:47 0.3 °C -3.1 °C 1014.9 hPa West 3.2 km/h 6.4 km/h 78% 0.0 mm 0 W/m2
00:52 0.3 °C -3.1 °C 1014.9 hPa West 3.2 km/h 14.5 km/h 78% 0.0 mm 0 W/m2
00:57 0.3 °C -2.9 °C 1014.9 hPa West 9.7 km/h 11.3 km/h 79% 0.0 mm 0 W/m2
01:02 0.3 °C -3.1 °C 1015.2 hPa WNW 7.9 km/h 12.9 km/h 78% 0.0 mm 0 W/m2
01:07 0.3 °C -2.9 °C 1015.2 hPa WSW 3.2 km/h 11.3 km/h 79% 0.0 mm 0 W/m2
01:12 0.3 °C -2.9 °C 1015.2 hPa West 6.4 km/h 11.3 km/h 79% 0.0 mm 0 W/m2
01:17 0.3 °C -3.1 °C 1015.2 hPa SW 4.7 km/h 11.3 km/h 78% 0.0 mm 0 W/m2
01:22 0.4 °C -3 °C 1015.2 hPa WNW 4.7 km/h 14.5 km/h 78% 0.0 mm 0 W/m2
01:27 0.3 °C -2.9 °C 1015.2 hPa WNW 6.4 km/h 11.3 km/h 79% 0.0 mm 0 W/m2
01:32 0.3 °C -2.9 °C 1015.2 hPa West 11.1 km/h 19.3 km/h 79% 0.0 mm 0 W/m2
01:37 0.3 °C -2.7 °C 1015.2 hPa WNW 13 km/h 14.5 km/h 80% 0.0 mm 0 W/m2
01:42 0.3 °C -2.7 °C 1015.2 hPa WNW 6.4 km/h 19.3 km/h 80% 0.0 mm 0 W/m2
01:47 0.3 °C -2.7 °C 1015.2 hPa West 11.1 km/h 14.5 km/h 80% 0.0 mm 0 W/m2
01:52 0.3 °C -2.7 °C 1015.2 hPa West 6.4 km/h 17.7 km/h 80% 0.0 mm 0 W/m2
01:57 0.3 °C -2.7 °C 1015.2 hPa WNW 4.7 km/h 12.9 km/h 80% 0.0 mm 0 W/m2
02:02 0.3 °C -2.7 °C 1015.2 hPa WNW 3.2 km/h 17.7 km/h 80% 0.0 mm 0 W/m2
02:07 0.3 °C -2.7 °C 1015.2 hPa WSW 9.7 km/h 16.1 km/h 80% 0.0 mm 0 W/m2
02:12 0.3 °C -2.7 °C 1015.2 hPa WSW 7.9 km/h 14.5 km/h 80% 0.0 mm 0 W/m2
02:17 0.3 °C -2.7 °C 1015.6 hPa WNW 7.9 km/h 12.9 km/h 80% 0.0 mm 0 W/m2
02:23 0.3 °C -2.7 °C 1015.6 hPa WNW 19.5 km/h 19.3 km/h 80% 0.0 mm 0 W/m2
02:28 0.3 °C -2.7 °C 1015.6 hPa WNW 13 km/h 12.9 km/h 80% 0.0 mm 0 W/m2
02:33 0.3 °C -2.6 °C 1015.6 hPa West 3.2 km/h 14.5 km/h 81% 0.0 mm 0 W/m2
02:38 0.2 °C -2.7 °C 1015.6 hPa WNW 4.7 km/h 14.5 km/h 81% 0.0 mm 0 W/m2
02:43 0.1 °C -2.8 °C 1015.6 hPa WSW 3.2 km/h 8 km/h 81% 0.0 mm 0 W/m2
02:48 0.1 °C -2.6 °C 1015.6 hPa WNW 6.4 km/h 14.5 km/h 82% 0.0 mm 0 W/m2
02:53 0 °C -2.7 °C 1015.9 hPa WNW 7.9 km/h 14.5 km/h 82% 0.0 mm 0 W/m2
02:58 0.1 °C -2.6 °C 1016.3 hPa West 4.7 km/h 9.7 km/h 82% 0.0 mm 0 W/m2
03:03 0.1 °C -2.6 °C 1016.3 hPa WSW 11.1 km/h 14.5 km/h 82% 0.0 mm 0 W/m2
03:08 0.1 °C -2.6 °C 1016.3 hPa WNW 6.4 km/h 12.9 km/h 82% 0.0 mm 0 W/m2
03:13 0.2 °C -2.5 °C 1016.3 hPa West 4.7 km/h 14.5 km/h 82% 0.0 mm 0 W/m2
03:18 0.2 °C -2.5 °C 1016.3 hPa WSW 6.4 km/h 14.5 km/h 82% 0.0 mm 0 W/m2
03:23 0.3 °C -2.4 °C 1016.3 hPa WNW 7.9 km/h 16.1 km/h 82% 0.0 mm 0 W/m2
03:28 0.3 °C -2.6 °C 1016.3 hPa West 4.7 km/h 11.3 km/h 81% 0.0 mm 0 W/m2
03:33 0.3 °C -2.6 °C 1016.3 hPa West 4.7 km/h 12.9 km/h 81% 0.0 mm 0 W/m2
03:38 0.3 °C -2.7 °C 1016.3 hPa WNW 6.4 km/h 11.3 km/h 80% 0.0 mm 0 W/m2
03:43 0.3 °C -2.7 °C 1016.3 hPa WNW 6.4 km/h 11.3 km/h 80% 0.0 mm 0 W/m2
03:48 0.3 °C -2.7 °C 1016.3 hPa WSW 3.2 km/h 11.3 km/h 80% 0.0 mm 0 W/m2
03:53 0.4 °C -2.8 °C 1016.3 hPa WSW 7.9 km/h 12.9 km/h 79% 0.0 mm 0 W/m2
03:58 0.4 °C -2.8 °C 1016.6 hPa WSW 4.7 km/h 4.8 km/h 79% 0.0 mm 0 W/m2
04:03 0.4 °C -2.8 °C 1016.6 hPa WNW 4.7 km/h 12.9 km/h 79% 0.0 mm 0 W/m2
04:08 0.3 °C -2.9 °C 1016.6 hPa West 4.7 km/h 8 km/h 79% 0.0 mm 0 W/m2
04:13 0.3 °C -3.1 °C 1016.6 hPa WNW 3.2 km/h 11.3 km/h 78% 0.0 mm 0 W/m2
04:18 0.2 °C -3.2 °C 1016.6 hPa SW 4.7 km/h 12.9 km/h 78% 0.0 mm 0 W/m2
04:23 0.2 °C -3.2 °C 1016.6 hPa NW 4.7 km/h 12.9 km/h 78% 0.0 mm 0 W/m2
04:28 0.1 °C -3.1 °C 1016.6 hPa West 4.7 km/h 12.9 km/h 79% 0.0 mm 0 W/m2
04:33 0.1 °C -3.1 °C 1016.6 hPa West 3.2 km/h 6.4 km/h 79% 0.0 mm 0 W/m2
04:38 0.1 °C -3.1 °C 1016.6 hPa WNW 9.7 km/h 12.9 km/h 79% 0.0 mm 0 W/m2
04:43 0.1 °C -3.1 °C 1016.9 hPa WNW 4.7 km/h 14.5 km/h 79% 0.0 mm 0 W/m2
04:48 0.2 °C -3 °C 1016.9 hPa WSW 6.4 km/h 11.3 km/h 79% 0.0 mm 0 W/m2
04:53 0.2 °C -3.2 °C 1016.9 hPa West 11.1 km/h 14.5 km/h 78% 0.0 mm 0 W/m2
04:58 0.3 °C -3.1 °C 1016.9 hPa NNW 9.7 km/h 12.9 km/h 78% 0.0 mm 0 W/m2
05:03 0.3 °C -3.1 °C 1016.9 hPa West 6.4 km/h 9.7 km/h 78% 0.0 mm 0 W/m2
05:08 0.3 °C -2.9 °C 1016.9 hPa WSW 1.4 km/h 12.9 km/h 79% 0.0 mm 0 W/m2
05:13 0.3 °C -2.7 °C 1017.3 hPa West 4.7 km/h 9.7 km/h 80% 0.0 mm 0 W/m2
05:18 0.2 °C -2.8 °C 1017.3 hPa WNW 3.2 km/h 11.3 km/h 80% 0.0 mm 0 W/m2
05:23 0.1 °C -2.8 °C 1016.9 hPa WNW 4.7 km/h 11.3 km/h 81% 0.0 mm 0 W/m2
05:28 0 °C -2.7 °C 1017.3 hPa WSW 4.7 km/h 9.7 km/h 82% 0.0 mm 0 W/m2
05:33 -0.1 °C -2.8 °C 1017.3 hPa West 3.2 km/h 12.9 km/h 82% 0.0 mm 0 W/m2
05:38 -0.2 °C -2.9 °C 1017.3 hPa WSW 11.1 km/h 11.3 km/h 82% 0.0 mm 0 W/m2
05:43 -0.2 °C -2.7 °C 1017.3 hPa WNW 3.2 km/h 9.7 km/h 83% 0.0 mm 0 W/m2
05:48 -0.3 °C -2.8 °C 1017.3 hPa West 6.4 km/h 12.9 km/h 83% 0.0 mm 0 W/m2
05:53 -0.3 °C -2.8 °C 1017.3 hPa West 4.7 km/h 9.7 km/h 83% 0.0 mm 0 W/m2
05:58 -0.4 °C -2.8 °C 1017.3 hPa West 9.7 km/h 11.3 km/h 84% 0.0 mm 0 W/m2
06:03 -0.4 °C -2.8 °C 1017.6 hPa WNW 6.4 km/h 14.5 km/h 84% 0.0 mm 0 W/m2
06:08 -0.4 °C -2.8 °C 1017.6 hPa West 1.4 km/h 11.3 km/h 84% 0.0 mm 0 W/m2
06:13 -0.4 °C -2.8 °C 1017.6 hPa West 4.7 km/h 14.5 km/h 84% 0.0 mm 0 W/m2
06:18 -0.4 °C -2.8 °C 1017.6 hPa West 9.7 km/h 14.5 km/h 84% 0.0 mm 0 W/m2
06:23 -0.4 °C -2.8 °C 1017.6 hPa WSW 6.4 km/h 14.5 km/h 84% 0.0 mm 0 W/m2
06:28 -0.4 °C -2.8 °C 1017.6 hPa WNW 4.7 km/h 12.9 km/h 84% 0.0 mm 0 W/m2
06:33 -0.4 °C -2.8 °C 1017.6 hPa West 4.7 km/h 19.3 km/h 84% 0.0 mm 0 W/m2
06:38 -0.5 °C -2.9 °C 1017.6 hPa WSW 6.4 km/h 19.3 km/h 84% 0.0 mm 0 W/m2
06:43 -0.6 °C -3 °C 1018.0 hPa West 4.7 km/h 12.9 km/h 84% 0.0 mm 0 W/m2
06:48 -0.6 °C -3 °C 1018.0 hPa WNW 4.7 km/h 12.9 km/h 84% 0.0 mm 0 W/m2
06:53 -0.7 °C -3.1 °C 1018.3 hPa WSW 11.1 km/h 17.7 km/h 84% 0.0 mm 0 W/m2
06:58 -0.7 °C -3.1 °C 1018.3 hPa WSW 9.7 km/h 17.7 km/h 84% 0.0 mm 0 W/m2
07:03 -0.7 °C -2.9 °C 1018.3 hPa West 6.4 km/h 14.5 km/h 85% 0.0 mm 0 W/m2
07:08 -0.6 °C -2.8 °C 1018.3 hPa NW 7.9 km/h 16.1 km/h 85% 0.0 mm 5 W/m2
07:13 -0.6 °C -3 °C 1018.3 hPa West 11.1 km/h 14.5 km/h 84% 0.0 mm 7 W/m2
07:18 -0.6 °C -3 °C 1018.0 hPa West 11.1 km/h 12.9 km/h 84% 0.0 mm 11 W/m2
07:23 -0.6 °C -3 °C 1018.3 hPa NW 6.4 km/h 12.9 km/h 84% 0.0 mm 12 W/m2
07:28 -0.6 °C -3 °C 1018.3 hPa WSW 7.9 km/h 17.7 km/h 84% 0.0 mm 14 W/m2
07:33 -0.6 °C -3 °C 1018.6 hPa WNW 7.9 km/h 12.9 km/h 84% 0.0 mm 16 W/m2
07:38 -0.7 °C -3.1 °C 1018.6 hPa West 16.3 km/h 16.1 km/h 84% 0.0 mm 30 W/m2
07:43 -0.6 °C -3 °C 1018.6 hPa WNW 6.4 km/h 12.9 km/h 84% 0.0 mm 26 W/m2
07:48 -0.6 °C -3 °C 1019.0 hPa WSW 11.1 km/h 20.9 km/h 84% 0.0 mm 26 W/m2
07:53 -0.6 °C -3 °C 1019.0 hPa WNW 9.7 km/h 17.7 km/h 84% 0.0 mm 26 W/m2
07:58 -0.6 °C -3 °C 1019.0 hPa WSW 6.4 km/h 20.9 km/h 84% 0.0 mm 35 W/m2
08:03 -0.6 °C -3 °C 1019.0 hPa WSW 11.1 km/h 19.3 km/h 84% 0.0 mm 32 W/m2
08:08 -0.6 °C -3 °C 1019.0 hPa West 9.7 km/h 19.3 km/h 84% 0.0 mm 30 W/m2
08:13 -0.6 °C -3 °C 1019.0 hPa WNW 14.3 km/h 22.5 km/h 84% 0.0 mm 77 W/m2
08:18 -0.5 °C -2.9 °C 1019.0 hPa WNW 4.7 km/h 12.9 km/h 84% 0.0 mm 127 W/m2
08:23 -0.3 °C -2.8 °C 1019.3 hPa West 13 km/h 14.5 km/h 83% 0.0 mm 135 W/m2
08:28 -0.2 °C -2.7 °C 1019.3 hPa West 6.4 km/h 14.5 km/h 83% 0.0 mm 163 W/m2
08:33 0 °C -2.7 °C 1019.3 hPa WNW 13 km/h 14.5 km/h 82% 0.0 mm 199 W/m2
08:38 0.2 °C -2.5 °C 1019.3 hPa West 14.3 km/h 17.7 km/h 82% 0.0 mm 204 W/m2
08:43 0.3 °C -2.6 °C 1019.0 hPa West 9.7 km/h 16.1 km/h 81% 0.0 mm 130 W/m2
08:48 0.3 °C -2.6 °C 1019.3 hPa West 16.3 km/h 22.5 km/h 81% 0.0 mm 142 W/m2
08:53 0.2 °C -2.7 °C 1019.3 hPa WNW 13 km/h 19.3 km/h 81% 0.0 mm 121 W/m2
08:58 0.2 °C -2.5 °C 1019.3 hPa WNW 4.7 km/h 22.5 km/h 82% 0.0 mm 97 W/m2
09:03 0.2 °C -2.7 °C 1019.6 hPa NW 19.5 km/h 24.1 km/h 81% 0.0 mm 102 W/m2
09:08 0.1 °C -2.6 °C 1019.3 hPa West 4.7 km/h 17.7 km/h 82% 0.0 mm 171 W/m2
09:13 0.2 °C -2.5 °C 1019.3 hPa WNW 9.7 km/h 22.5 km/h 82% 0.0 mm 183 W/m2
09:18 0.3 °C -2.6 °C 1019.3 hPa WNW 11.1 km/h 24.1 km/h 81% 0.0 mm 162 W/m2
09:23 0.3 °C -2.6 °C 1019.6 hPa WSW 13 km/h 17.7 km/h 81% 0.0 mm 207 W/m2
09:28 0.5 °C -2.5 °C 1019.6 hPa SSW 7.9 km/h 24.1 km/h 80% 0.0 mm 195 W/m2
09:33 0.6 °C -2.5 °C 1019.6 hPa WSW 14.3 km/h 25.7 km/h 80% 0.0 mm 193 W/m2
09:38 0.6 °C -2.5 °C 1019.6 hPa West 14.3 km/h 14.5 km/h 80% 0.0 mm 188 W/m2
09:43 0.7 °C -2.4 °C 1020.0 hPa WNW 17.7 km/h 17.7 km/h 80% 0.0 mm 287 W/m2
09:48 0.8 °C -2.3 °C 1019.6 hPa SW 11.1 km/h 25.7 km/h 80% 0.0 mm 220 W/m2
09:53 0.9 °C -2.3 °C 1019.6 hPa WNW 4.7 km/h 17.7 km/h 79% 0.0 mm 195 W/m2
09:58 1.1 °C -2.1 °C 1019.6 hPa WNW 14.3 km/h 25.7 km/h 79% 0.0 mm 190 W/m2
10:03 1.2 °C -2.2 °C 1019.6 hPa West 13 km/h 22.5 km/h 78% 0.0 mm 179 W/m2
10:08 1.3 °C -2.1 °C 1019.6 hPa WNW 4.7 km/h 19.3 km/h 78% 0.0 mm 160 W/m2
10:13 1.3 °C -2.3 °C 1020.0 hPa WNW 4.7 km/h 19.3 km/h 77% 0.0 mm 197 W/m2
10:18 1.4 °C -2.2 °C 1020.0 hPa WNW 11.1 km/h 16.1 km/h 77% 0.0 mm 218 W/m2
10:23 1.4 °C -2.4 °C 1019.6 hPa West 14.3 km/h 20.9 km/h 76% 0.0 mm 200 W/m2
10:28 1.4 °C -2.4 °C 1020.0 hPa WNW 7.9 km/h 20.9 km/h 76% 0.0 mm 255 W/m2
10:33 1.5 °C -2.3 °C 1020.0 hPa WNW 4.7 km/h 19.3 km/h 76% 0.0 mm 155 W/m2
10:38 1.6 °C -2.4 °C 1020.0 hPa WNW 7.9 km/h 17.7 km/h 75% 0.0 mm 169 W/m2
10:43 1.8 °C -2.3 °C 1020.3 hPa West 9.7 km/h 17.7 km/h 74% 0.0 mm 188 W/m2
10:48 2 °C -2.3 °C 1020.3 hPa West 6.4 km/h 24.1 km/h 73% 0.0 mm 181 W/m2
10:53 2.1 °C -2.2 °C 1020.3 hPa WNW 11.1 km/h 19.3 km/h 73% 0.0 mm 248 W/m2
10:58 2.1 °C -2.2 °C 1020.0 hPa WNW 16.3 km/h 17.7 km/h 73% 0.0 mm 213 W/m2
11:03 2.3 °C -2.2 °C 1020.0 hPa WNW 6.4 km/h 16.1 km/h 72% 0.0 mm 253 W/m2
11:08 2.3 °C -2.4 °C 1020.3 hPa NW 13 km/h 22.5 km/h 71% 0.0 mm 241 W/m2
11:13 2.4 °C -2.5 °C 1020.3 hPa West 11.1 km/h 30.6 km/h 70% 0.0 mm 236 W/m2
11:18 2.5 °C -2.2 °C 1020.0 hPa WSW 14.3 km/h 19.3 km/h 71% 0.0 mm 197 W/m2
11:24 2.6 °C -2.3 °C 1020.0 hPa NW 14.3 km/h 27.4 km/h 70% 0.0 mm 292 W/m2
Juneau County Weather
Compliments of Weather Underground - 4 mb